GW6523 Weather Reports


time (UTC)temp
C
wind
direction
speed
KPH
gust
KPH
rain 1hr
cm
rain 24hr
cm
rain mn
cm
humidity
%
barometer
mb
20260509024522 17 219 3.2 4.8 0.00 0.00 0.00 54 997.1
20260509024508 17 223 3.2 4.8 0.00 0.00 0.00 54 997.1
20260509024021 17 46 1.6 3.2 0.00 0.00 0.00 53 997.1
20260509023532 17 201 1.6 3.2 0.00 0.00 0.00 52 997.1
20260509023508 17 223 1.6 3.2 0.00 0.00 0.00 52 997.1
20260509023010 17 223 1.6 3.2 0.00 0.00 0.00 53 997.2
20260509022519 17 216 1.6 3.2 0.00 0.00 0.00 51 997.1
20260509022008 17 223 1.6 3.2 0.00 0.00 0.00 53 997.1
20260509021522 17 206 1.6 4.8 0.00 0.00 0.00 52 997.1
20260509021508 17 190 1.6 4.8 0.00 0.00 0.00 52 997.1
20260509021007 17 193 3.2 4.8 0.00 0.00 0.00 52 997.1
20260509020508 17 216 1.6 4.8 0.00 0.00 0.00 52 997.0
20260509020021 17 178 1.6 4.8 0.00 0.00 0.00 52 997.0
20260509020009 17 178 3.2 4.8 0.00 0.00 0.00 52 997.0
20260509015507 17 216 1.6 4.8 0.00 0.00 0.00 53 997.1
20260509015009 17 197 3.2 4.8 0.00 0.00 0.00 52 997.1
20260509014521 17 213 1.6 4.8 0.00 0.00 0.00 51 997.1
20260509014509 17 223 1.6 4.8 0.00 0.00 0.00 51 997.1
20260509014009 18 223 1.6 4.8 0.00 0.00 0.00 51 997.0
20260509013508 18 216 1.6 4.8 0.00 0.00 0.00 51 996.9
20260509013021 18 223 1.6 3.2 0.00 0.00 0.00 50 997.0
20260509013008 18 223 3.2 3.2 0.00 0.00 0.00 51 997.0
20260509012508 18 218 1.6 3.2 0.00 0.00 0.00 49 996.9
20260509012007 18 213 1.6 4.8 0.00 0.00 0.00 50 996.9
20260509011521 18 216 1.6 3.2 0.00 0.00 0.00 49 996.9
20260509011509 18 206 1.6 3.2 0.00 0.00 0.00 49 996.9
20260509011008 18 197 1.6 3.2 0.00 0.00 0.00 49 997.0
20260509010519 18 234 1.6 3.2 0.00 0.00 0.00 49 997.0
20260509010023 18 223 1.6 4.8 0.00 0.00 0.00 49 997.0
20260509010020 18 213 1.6 4.8 0.00 0.00 0.00 49 997.0
20260509005519 18 223 3.2 6.4 0.00 0.00 0.00 49 997.0
20260509005011 18 237 3.2 6.4 0.00 0.00 0.00 48 996.8
20260509004534 18 240 1.6 8.0 0.00 0.00 0.00 48 996.8
20260509004508 18 231 1.6 8.0 0.00 0.00 0.00 48 996.8
20260509003521 18 216 1.6 4.8 0.00 0.00 0.00 48 996.8
20260509003509 18 240 1.6 4.8 0.00 0.00 0.00 48 996.8
20260509003033 18 223 1.6 6.4 0.00 0.00 0.00 47 996.7
20260509003008 18 231 1.6 6.4 0.00 0.00 0.00 47 996.7
20260509002508 18 232 3.2 4.8 0.00 0.00 0.00 48 996.7
20260509002008 18 223 3.2 6.4 0.00 0.00 0.00 49 996.7
20260509001532 18 203 3.2 6.4 0.00 0.00 0.00 49 996.7
20260509001507 18 195 1.6 6.4 0.00 0.00 0.00 49 996.7
20260509001011 19 240 1.6 4.8 0.00 0.00 0.00 49 996.7
20260509000521 19 237 1.6 4.8 0.00 0.00 0.00 47 996.8
20260509000510 19 206 1.6 4.8 0.00 0.00 0.00 47 996.8
20260509000024 19 218 3.2 6.4 0.00 0.00 0.00 47 996.8
20260509000020 19 245 3.2 6.4 0.00 0.00 0.00 47 996.8
20260508235507 19 215 3.2 6.4 0.00 0.00 0.00 47 996.8
20260508235023 19 223 1.6 6.4 0.00 0.00 0.00 47 996.8
20260508234521 19 223 3.2 6.4 0.00 0.00 0.00 47 996.8
20260508234508 19 257 3.2 6.4 0.00 0.00 0.00 47 996.8
20260508234007 19 216 3.2 6.4 0.00 0.00 0.00 48 996.8
20260508233522 19 216 3.2 6.4 0.00 0.00 0.00 45 996.8
20260508233518 19 223 3.2 6.4 0.00 0.00 0.00 45 996.8
20260508233021 19 223 3.2 4.8 0.00 0.00 0.00 46 996.8
20260508233009 19 219 3.2 4.8 0.00 0.00 0.00 46 996.8
20260508232508 19 223 3.2 8.0 0.00 0.00 0.00 46 996.8
20260508232020 20 197 3.2 9.7 0.00 0.00 0.00 46 996.8
20260508231521 20 234 4.8 9.7 0.00 0.00 0.00 44 996.8
20260508231508 20 218 4.8 9.7 0.00 0.00 0.00 46 996.8
20260508231007 20 234 4.8 9.7 0.00 0.00 0.00 45 996.8
20260508230521 20 245 4.8 9.7 0.00 0.00 0.00 45 996.7
20260508230508 20 213 4.8 9.7 0.00 0.00 0.00 45 996.7
20260508230021 20 223 4.8 9.7 0.00 0.00 0.00 45 996.8
20260508230008 20 209 4.8 9.7 0.00 0.00 0.00 45 996.8
20260508225507 20 223 3.2 6.4 0.00 0.00 0.00 46 996.6
20260508225021 20 238 3.2 8.0 0.00 0.00 0.00 45 996.6
20260508225008 20 227 3.2 8.0 0.00 0.00 0.00 45 996.6
20260508224521 20 201 3.2 8.0 0.00 0.00 0.00 45 996.7
20260508224508 20 195 3.2 8.0 0.00 0.00 0.00 45 996.7
20260508224008 20 199 3.2 11.3 0.00 0.00 0.00 47 996.7
20260508223508 20 215 4.8 6.4 0.00 0.00 0.00 44 996.6
20260508223021 20 234 3.2 6.4 0.00 0.00 0.00 45 996.6
20260508223008 20 223 3.2 6.4 0.00 0.00 0.00 45 996.6
20260508222519 20 223 4.8 9.7 0.00 0.00 0.00 46 996.6
20260508222021 20 223 4.8 9.7 0.00 0.00 0.00 43 996.6
20260508222009 20 206 4.8 9.7 0.00 0.00 0.00 43 996.6
20260508221532 20 234 4.8 8.0 0.00 0.00 0.00 45 996.5
20260508221509 20 206 4.8 8.0 0.00 0.00 0.00 45 996.5
20260508221009 20 213 3.2 11.3 0.00 0.00 0.00 43 996.6
20260508220532 20 197 6.4 11.3 0.00 0.00 0.00 45 996.4
20260508220508 20 228 6.4 11.3 0.00 0.00 0.00 44 996.4
20260508220021 20 223 4.8 12.9 0.00 0.00 0.00 43 996.4
20260508220008 20 232 4.8 12.9 0.00 0.00 0.00 43 996.4
20260508215508 20 229 4.8 12.9 0.00 0.00 0.00 43 996.5
20260508215018 20 232 6.4 14.5 0.00 0.00 0.00 42 996.6
20260508214508 21 194 6.4 14.5 0.00 0.00 0.00 41 996.6
20260508214007 21 360 6.4 9.7 0.00 0.00 0.00 41 996.6
20260508213519 21 219 3.2 14.5 0.00 0.00 0.00 41 996.6
20260508213021 21 206 4.8 14.5 0.00 0.00 0.00 43 996.7
20260508213012 21 223 4.8 14.5 0.00 0.00 0.00 42 996.7
20260508212508 21 223 4.8 11.3 0.00 0.00 0.00 44 996.7
20260508212019 21 218 4.8 11.3 0.00 0.00 0.00 42 996.7
20260508211521 21 198 8.0 11.3 0.00 0.00 0.00 42 996.7
20260508211508 21 206 6.4 11.3 0.00 0.00 0.00 42 996.7
20260508211007 21 216 4.8 12.9 0.00 0.00 0.00 43 996.8
20260508210521 21 165 8.0 12.9 0.00 0.00 0.00 44 996.9
20260508210508 21 210 8.0 12.9 0.00 0.00 0.00 44 996.9
20260508210021 21 168 6.4 12.9 0.00 0.00 0.00 43 997.0
20260508210013 21 165 6.4 12.9 0.00 0.00 0.00 42 997.0
20260508205509 21 221 4.8 11.3 0.00 0.00 0.00 41 997.1
20260508205007 21 178 4.8 12.9 0.00 0.00 0.00 43 997.1
20260508204521 21 178 4.8 12.9 0.00 0.00 0.00 41 997.2
20260508204507 21 178 4.8 12.9 0.00 0.00 0.00 41 997.2
20260508204008 21 220 3.2 11.3 0.00 0.00 0.00 41 997.2
20260508203519 21 258 3.2 11.3 0.00 0.00 0.00 44 997.4
20260508203021 21 135 3.2 12.9 0.00 0.00 0.00 42 997.6
20260508203008 21 293 3.2 12.9 0.00 0.00 0.00 42 997.6
20260508202508 21 189 6.4 12.9 0.00 0.00 0.00 41 997.6
20260508202020 21 231 3.2 6.4 0.00 0.00 0.00 43 997.6
20260508201521 21 234 3.2 6.4 0.00 0.00 0.00 43 997.7
20260508201508 21 217 3.2 6.4 0.00 0.00 0.00 43 997.7
20260508201008 21 269 4.8 8.0 0.00 0.00 0.00 43 997.8
20260508200543 21 237 3.2 9.7 0.00 0.00 0.00 43 997.9
20260508200508 21 178 3.2 9.7 0.00 0.00 0.00 43 997.9
20260508200021 21 227 4.8 11.3 0.00 0.00 0.00 39 998.0
20260508200009 21 200 3.2 11.3 0.00 0.00 0.00 39 998.0
20260508195508 21 238 6.4 12.9 0.00 0.00 0.00 39 998.1
20260508195013 21 227 6.4 12.9 0.00 0.00 0.00 39 998.0
20260508194521 21 209 4.8 11.3 0.00 0.00 0.00 41 998.1
20260508194508 21 173 4.8 11.3 0.00 0.00 0.00 41 998.1
20260508194008 21 223 3.2 9.7 0.00 0.00 0.00 41 998.1
20260508193521 21 246 3.2 9.7 0.00 0.00 0.00 44 998.1
20260508193507 21 240 3.2 9.7 0.00 0.00 0.00 44 998.1
20260508193021 21 220 3.2 11.3 0.00 0.00 0.00 42 998.1
20260508193008 21 187 3.2 11.3 0.00 0.00 0.00 42 998.1
20260508192519 21 208 4.8 12.9 0.00 0.00 0.00 40 998.2
20260508192008 21 208 6.4 12.9 0.00 0.00 0.00 43 998.2
20260508191508 21 18 3.2 12.9 0.00 0.00 0.00 40 998.3
20260508191008 21 154 4.8 11.3 0.00 0.00 0.00 41 998.4
20260508190509 22 207 6.4 12.9 0.00 0.00 0.00 37 998.4
20260508190021 22 209 4.8 12.9 0.00 0.00 0.00 39 998.5
20260508190007 22 190 4.8 12.9 0.00 0.00 0.00 39 998.5
20260508185508 22 264 6.4 12.9 0.00 0.00 0.00 39 998.5
20260508185008 22 213 3.2 17.7 0.00 0.00 0.00 41 998.6
20260508184521 22 221 4.8 17.7 0.00 0.00 0.00 38 998.6
20260508184507 22 216 4.8 17.7 0.00 0.00 0.00 37 998.6
20260508184009 22 291 4.8 11.3 0.00 0.00 0.00 38 998.7
20260508183521 22 310 3.2 14.5 0.00 0.00 0.00 41 998.9
20260508183508 22 206 4.8 14.5 0.00 0.00 0.00 41 998.9
20260508183021 22 219 6.4 14.5 0.00 0.00 0.00 38 998.9
20260508183006 22 220 6.4 14.5 0.00 0.00 0.00 38 998.9
20260508182508 22 243 6.4 11.3 0.00 0.00 0.00 41 999.0
20260508182008 22 211 4.8 9.7 0.00 0.00 0.00 44 999.2
20260508181521 22 218 4.8 12.9 0.00 0.00 0.00 40 999.2
20260508181507 22 231 4.8 12.9 0.00 0.00 0.00 40 999.2
20260508181019 22 327 3.2 12.9 0.00 0.00 0.00 41 999.3
20260508180522 22 187 4.8 11.3 0.00 0.00 0.00 40 999.3
20260508180508 22 214 4.8 11.3 0.00 0.00 0.00 42 999.3
20260508180021 22 135 4.8 11.3 0.00 0.00 0.00 42 999.3
20260508180009 22 331 4.8 11.3 0.00 0.00 0.00 42 999.3
20260508175519 22 178 3.2 8.0 0.00 0.00 0.00 40 999.5
20260508175008 22 269 4.8 12.9 0.00 0.00 0.00 39 999.4
20260508174521 22 8 4.8 12.9 0.00 0.00 0.00 40 999.5
20260508174508 22 302 4.8 12.9 0.00 0.00 0.00 40 999.5
20260508174022 22 223 4.8 11.3 0.00 0.00 0.00 37 999.7
20260508173509 22 196 4.8 11.3 0.00 0.00 0.00 43 999.8
20260508173021 22 221 4.8 16.1 0.00 0.00 0.00 40 999.7
20260508173008 22 245 4.8 16.1 0.00 0.00 0.00 43 999.7
20260508172507 22 223 6.4 14.5 0.00 0.00 0.00 37 999.9
20260508172030 21 208 6.4 14.5 0.00 0.00 0.00 39 1000.0
20260508171521 21 229 4.8 14.5 0.00 0.00 0.00 40 1000.3
20260508171508 21 203 4.8 14.5 0.00 0.00 0.00 40 1000.3
20260508171007 21 187 4.8 16.1 0.00 0.00 0.00 43 1000.3
20260508170521 21 248 8.0 16.1 0.00 0.00 0.00 41 1000.5
20260508170509 21 250 8.0 16.1 0.00 0.00 0.00 41 1000.5
20260508170026 21 206 4.8 11.3 0.00 0.00 0.00 42 1000.6
20260508170023 22 178 4.8 11.3 0.00 0.00 0.00 41 1000.6
20260508165509 22 194 4.8 9.7 0.00 0.00 0.00 43 1000.7
20260508165008 22 259 3.2 9.7 0.00 0.00 0.00 45 1000.8
20260508164521 22 286 3.2 9.7 0.00 0.00 0.00 43 1000.8
20260508164508 22 206 3.2 9.7 0.00 0.00 0.00 43 1000.8
20260508164019 21 204 3.2 9.7 0.00 0.00 0.00 46 1001.0
20260508163521 21 213 4.8 9.7 0.00 0.00 0.00 44 1001.1
20260508163508 21 250 6.4 9.7 0.00 0.00 0.00 44 1001.1
20260508163021 21 276 4.8 9.7 0.00 0.00 0.00 47 1001.1
20260508163008 21 223 4.8 9.7 0.00 0.00 0.00 47 1001.1
20260508162523 21 269 3.2 12.9 0.00 0.00 0.00 45 1001.2
20260508162008 21 319 6.4 12.9 0.00 0.00 0.00 44 1001.2
20260508161521 21 229 4.8 11.3 0.00 0.00 0.00 47 1001.4
20260508161509 21 203 4.8 11.3 0.00 0.00 0.00 47 1001.4
20260508161032 21 222 4.8 11.3 0.00 0.00 0.00 47 1001.3
20260508161008 21 220 4.8 11.3 0.00 0.00 0.00 47 1001.3
20260508160521 21 295 3.2 9.7 0.00 0.00 0.00 47 1001.3
20260508160509 21 284 3.2 9.7 0.00 0.00 0.00 47 1001.3
20260508160034 21 206 4.8 9.7 0.00 0.00 0.00 45 1001.5
20260508155521 21 161 3.2 11.3 0.00 0.00 0.00 49 1001.6
20260508155509 21 269 3.2 11.3 0.00 0.00 0.00 49 1001.6
20260508155007 20 221 4.8 11.3 0.00 0.00 0.00 45 1001.6
20260508154521 20 158 3.2 9.7 0.00 0.00 0.00 51 1001.6
20260508154507 20 210 3.2 9.7 0.00 0.00 0.00 51 1001.6
20260508154007 20 178 4.8 9.7 0.00 0.00 0.00 50 1001.8
20260508153523 20 277 4.8 9.7 0.00 0.00 0.00 48 1001.8
20260508153021 20 295 4.8 9.7 0.00 0.00 0.00 48 1001.9
20260508153009 20 135 4.8 9.7 0.00 0.00 0.00 48 1001.9
20260508152519 20 135 4.8 9.7 0.00 0.00 0.00 49 1001.9
20260508152007 19 226 3.2 8.0 0.00 0.00 0.00 52 1002.0
20260508151521 19 168 3.2 9.7 0.00 0.00 0.00 49 1002.1
20260508151508 19 314 3.2 9.7 0.00 0.00 0.00 50 1002.1
20260508151019 18 227 4.8 9.7 0.00 0.00 0.00 50 1002.2
20260508150508 18 20 4.8 9.7 0.00 0.00 0.00 52 1002.2
20260508150029 18 269 4.8 9.7 0.00 0.00 0.00 52 1002.3
20260508145520 18 213 4.8 9.7 0.00 0.00 0.00 52 1002.2
20260508145007 17 190 3.2 8.0 0.00 0.00 0.00 54 1002.1
20260508144521 17 260 4.8 8.0 0.00 0.00 0.00 56 1002.2
20260508144508 17 315 4.8 8.0 0.00 0.00 0.00 52 1002.2
20260508144008 17 269 3.2 9.7 0.00 0.00 0.00 54 1002.2
20260508143508 17 210 3.2 9.7 0.00 0.00 0.00 54 1002.2
20260508143021 16 168 3.2 11.3 0.00 0.00 0.00 55 1002.2
20260508143008 16 223 3.2 11.3 0.00 0.00 0.00 55 1002.2
20260508142508 16 215 4.8 11.3 0.00 0.00 0.00 53 1002.3
20260508142008 16 290 3.2 8.0 0.00 0.00 0.00 57 1002.4
20260508141532 16 295 3.2 6.4 0.00 0.00 0.00 57 1002.3
20260508141508 16 197 3.2 6.4 0.00 0.00 0.00 57 1002.3
20260508141008 16 172 3.2 8.0 0.00 0.00 0.00 57 1002.3
20260508140509 15 229 3.2 8.0 0.00 0.00 0.00 57 1002.4
20260508140022 15 245 3.2 8.0 0.00 0.00 0.00 58 1002.4
20260508140007 15 206 3.2 8.0 0.00 0.00 0.00 58 1002.4
20260508135521 15 206 3.2 6.4 0.00 0.00 0.00 58 1002.5
20260508135508 15 223 3.2 6.4 0.00 0.00 0.00 58 1002.5
20260508135022 15 187 3.2 6.4 0.00 0.00 0.00 58 1002.5
20260508134521 14 227 3.2 6.4 0.00 0.00 0.00 57 1002.5
20260508134507 14 178 3.2 6.4 0.00 0.00 0.00 57 1002.5
20260508134008 14 250 3.2 8.0 0.00 0.00 0.00 59 1002.6
20260508133523 13 240 3.2 8.0 0.00 0.00 0.00 62 1002.5
20260508133508 13 269 3.2 8.0 0.00 0.00 0.00 61 1002.5
20260508133021 13 217 3.2 6.4 0.00 0.00 0.00 62 1002.5
20260508133009 13 269 3.2 6.4 0.00 0.00 0.00 62 1002.5
20260508132508 13 209 1.6 6.4 0.00 0.00 0.00 63 1002.5
20260508132021 12 223 3.2 6.4 0.00 0.00 0.00 62 1002.6
20260508132008 12 269 3.2 6.4 0.00 0.00 0.00 62 1002.6
20260508131521 12 232 3.2 8.0 0.00 0.00 0.00 64 1002.5
20260508131507 12 178 3.2 8.0 0.00 0.00 0.00 64 1002.5
20260508131007 12 172 3.2 8.0 0.00 0.00 0.00 63 1002.5
20260508130508 12 276 3.2 8.0 0.00 0.00 0.00 64 1002.5
20260508130021 11 223 3.2 8.0 0.00 0.00 0.00 64 1002.4
20260508130008 11 227 1.6 8.0 0.00 0.00 0.00 65 1002.4
20260508125508 11 197 3.2 8.0 0.00 0.00 0.00 63 1002.5
20260508125007 11 219 3.2 11.3 0.00 0.00 0.00 64 1002.5
20260508124521 11 199 4.8 11.3 0.00 0.00 0.00 64 1002.5
20260508124508 11 240 3.2 11.3 0.00 0.00 0.00 64 1002.5
20260508124021 10 234 3.2 6.4 0.00 0.00 0.00 67 1002.4
20260508124008 10 215 3.2 6.4 0.00 0.00 0.00 67 1002.4
20260508123521 10 210 3.2 6.4 0.00 0.00 0.00 66 1002.4
20260508123021 10 250 3.2 8.0 0.00 0.00 0.00 68 1002.3
20260508123013 10 201 3.2 8.0 0.00 0.00 0.00 68 1002.3
20260508122508 10 195 4.8 8.0 0.00 0.00 0.00 68 1002.3
20260508122008 9 216 3.2 8.0 0.00 0.00 0.00 69 1002.3
20260508121522 8 206 4.8 9.7 0.00 0.00 0.00 70 1002.3
20260508121509 8 209 3.2 9.7 0.00 0.00 0.00 70 1002.3
20260508121008 8 221 4.8 9.7 0.00 0.00 0.00 70 1002.3
20260508120519 8 215 4.8 6.4 0.00 0.00 0.00 71 1002.2
20260508120021 8 169 3.2 4.8 0.00 0.00 0.00 73 1002.2
20260508120009 8 201 3.2 4.8 0.00 0.00 0.00 73 1002.2
20260508115521 7 167 3.2 4.8 0.00 0.00 0.00 74 1002.2
20260508115509 7 190 3.2 4.8 0.00 0.00 0.00 73 1002.2
20260508115006 7 257 3.2 6.4 0.00 0.00 0.00 73 1002.2
20260508114521 7 240 3.2 6.4 0.00 0.00 0.00 74 1002.1
20260508114508 7 227 3.2 6.4 0.00 0.00 0.00 74 1002.1
20260508114019 7 218 4.8 6.4 0.00 0.00 0.00 74 1002.1
20260508113507 7 223 3.2 6.4 0.00 0.00 0.00 74 1002.0
20260508113054 7 227 3.2 4.8 0.00 0.00 0.00 75 1002.0
20260508113008 7 210 3.2 4.8 0.00 0.00 0.00 75 1002.0
20260508112508 6 223 3.2 4.8 0.00 0.00 0.00 77 1002.0
20260508112021 6 231 3.2 6.4 0.00 0.00 0.00 76 1001.9
20260508112008 6 201 3.2 6.4 0.00 0.00 0.00 76 1001.9
20260508111532 6 213 3.2 6.4 0.00 0.00 0.00 76 1001.9
20260508111509 6 238 3.2 6.4 0.00 0.00 0.00 77 1001.9
20260508111008 6 240 3.2 4.8 0.00 0.00 0.00 77 1001.8
20260508110508 6 223 1.6 4.8 0.00 0.00 0.00 78 1001.8
20260508110021 6 232 3.2 4.8 0.00 0.00 0.00 77 1001.7
20260508110009 6 234 3.2 4.8 0.00 0.00 0.00 77 1001.7
20260508105508 6 228 1.6 4.8 0.00 0.00 0.00 78 1001.7
20260508105021 6 213 1.6 3.2 0.00 0.00 0.00 78 1001.7
20260508105008 6 218 1.6 3.2 0.00 0.00 0.00 78 1001.7
20260508104521 6 223 1.6 3.2 0.00 0.00 0.00 77 1001.6
20260508104508 6 206 1.6 3.2 0.00 0.00 0.00 77 1001.6
20260508104008 6 253 1.6 3.2 0.00 0.00 0.00 77 1001.7
20260508103508 6 223 1.6 4.8 0.00 0.00 0.00 77 1001.7
20260508103010 6 197 1.6 4.8 0.00 0.00 0.00 78 1001.6
20260508102508 6 229 1.6 3.2 0.00 0.00 0.00 79 1001.7
20260508102021 6 223 1.6 3.2 0.00 0.00 0.00 79 1001.6
20260508102008 6 219 1.6 3.2 0.00 0.00 0.00 79 1001.6
20260508101523 6 229 1.6 3.2 0.00 0.00 0.00 80 1001.7
20260508101519 6 234 1.6 3.2 0.00 0.00 0.00 80 1001.7
20260508101007 6 234 1.6 3.2 0.00 0.00 0.00 81 1001.8
20260508100507 6 213 1.6 1.6 0.00 0.00 0.00 79 1001.8
20260508100030 6 223 1.6 3.2 0.00 0.00 0.00 80 1001.7
20260508095507 6 245 1.6 3.2 0.00 0.00 0.00 80 1001.7
20260508095020 6 206 1.6 3.2 0.00 0.00 0.00 81 1001.7
20260508094520 6 223 1.6 3.2 0.00 0.00 0.00 80 1001.8
20260508094032 6 223 1.6 3.2 0.00 0.00 0.00 81 1001.7
20260508094008 6 218 1.6 3.2 0.00 0.00 0.00 81 1001.7
20260508093530 6 234 1.6 3.2 0.00 0.00 0.00 81 1001.7
20260508093021 6 213 1.6 3.2 0.00 0.00 0.00 80 1001.7
20260508093008 6 240 1.6 3.2 0.00 0.00 0.00 80 1001.7
20260508092519 6 234 1.6 3.2 0.00 0.00 0.00 80 1001.6
20260508092011 6 206 1.6 3.2 0.00 0.00 0.00 80 1001.6
20260508091521 6 269 0.0 3.2 0.00 0.00 0.00 80 1001.6
20260508091508 6 1 0.0 3.2 0.00 0.00 0.00 80 1001.6
20260508091008 6 250 1.6 3.2 0.00 0.00 0.00 80 1001.6
20260508090521 6 234 1.6 3.2 0.00 0.00 0.00 80 1001.6
20260508090508 6 240 1.6 3.2 0.00 0.00 0.00 80 1001.6
20260508090032 6 302 0.0 3.2 0.00 0.00 0.00 80 1001.6
20260508090008 6 250 0.0 3.2 0.00 0.00 0.00 80 1001.6
20260508085508 6 213 1.6 3.2 0.00 0.00 0.00 80 1001.5
20260508085020 6 250 1.6 3.2 0.00 0.00 0.00 80 1001.5
20260508085008 6 269 1.6 3.2 0.00 0.00 0.00 80 1001.5
20260508084524 6 234 1.6 3.2 0.00 0.00 0.00 79 1001.5
20260508084521 6 269 1.6 3.2 0.00 0.00 0.00 79 1001.5
20260508084007 6 240 1.6 3.2 0.00 0.00 0.00 79 1001.5
20260508083520 6 223 1.6 3.2 0.00 0.00 0.00 79 1001.6
20260508083021 6 234 1.6 3.2 0.00 0.00 0.00 79 1001.5
20260508083009 6 240 1.6 3.2 0.00 0.00 0.00 79 1001.5
20260508082511 6 234 1.6 3.2 0.00 0.00 0.00 78 1001.5
20260508082008 6 213 1.6 3.2 0.00 0.00 0.00 78 1001.5
20260508081523 6 253 1.6 3.2 0.00 0.00 0.00 77 1001.5
20260508081519 6 240 1.6 3.2 0.00 0.00 0.00 77 1001.5
20260508081021 7 295 0.0 3.2 0.00 0.00 0.00 77 1001.5
20260508081007 6 269 0.0 3.2 0.00 0.00 0.00 77 1001.5
20260508080532 7 223 1.6 3.2 0.00 0.00 0.00 77 1001.5
20260508080507 7 269 1.6 3.2 0.00 0.00 0.00 77 1001.5
20260508080021 7 223 1.6 3.2 0.00 0.00 0.00 76 1001.5
20260508080008 7 234 1.6 3.2 0.00 0.00 0.00 76 1001.5
20260508075519 7 223 1.6 3.2 0.00 0.00 0.00 75 1001.5
20260508075019 7 269 0.0 1.6 0.00 0.00 0.00 75 1001.5
20260508074507 7 314 0.0 1.6 0.00 0.00 0.00 74 1001.5
20260508074011 7 269 0.0 1.6 0.00 0.00 0.00 74 1001.5
20260508073521 7 269 0.0 1.6 0.00 0.00 0.00 74 1001.4
20260508073508 7 314 0.0 1.6 0.00 0.00 0.00 74 1001.4
20260508073021 7 135 0.0 1.6 0.00 0.00 0.00 74 1001.3
20260508073007 7 178 0.0 1.6 0.00 0.00 0.00 74 1001.3
20260508072521 7 269 0.0 3.2 0.00 0.00 0.00 74 1001.3
20260508072508 7 223 0.0 3.2 0.00 0.00 0.00 74 1001.3
20260508072021 7 197 1.6 3.2 0.00 0.00 0.00 75 1001.4
20260508072008 7 206 1.6 3.2 0.00 0.00 0.00 74 1001.4
20260508071523 7 218 1.6 3.2 0.00 0.00 0.00 74 1001.5
20260508071519 7 216 1.6 3.2 0.00 0.00 0.00 74 1001.5
20260508071009 7 236 1.6 3.2 0.00 0.00 0.00 74 1001.5
20260508070508 7 223 1.6 3.2 0.00 0.00 0.00 74 1001.6
20260508070022 7 231 1.6 3.2 0.00 0.00 0.00 73 1001.7
20260508070008 7 223 1.6 3.2 0.00 0.00 0.00 73 1001.7
20260508065521 7 234 1.6 3.2 0.00 0.00 0.00 73 1001.7
20260508065508 7 223 1.6 3.2 0.00 0.00 0.00 73 1001.7
20260508065007 7 223 1.6 3.2 0.00 0.00 0.00 72 1001.9
20260508064519 7 269 0.0 1.6 0.00 0.00 0.00 72 1002.0
20260508064009 7 240 0.0 3.2 0.00 0.00 0.00 72 1002.0
20260508063521 7 223 1.6 3.2 0.00 0.00 0.00 72 1002.1
20260508063509 7 231 1.6 3.2 0.00 0.00 0.00 72 1002.1
20260508063020 7 206 1.6 3.2 0.00 0.00 0.00 72 1002.1
20260508063012 7 197 1.6 3.2 0.00 0.00 0.00 72 1002.1
20260508062508 8 193 1.6 3.2 0.00 0.00 0.00 71 1002.2
20260508062026 8 250 1.6 3.2 0.00 0.00 0.00 71 1002.2
20260508062008 8 213 1.6 3.2 0.00 0.00 0.00 71 1002.2
20260508061523 8 234 1.6 3.2 0.00 0.00 0.00 71 1002.2
20260508061519 8 240 1.6 3.2 0.00 0.00 0.00 71 1002.2
20260508061019 8 250 1.6 3.2 0.00 0.00 0.00 71 1002.3
20260508060521 8 250 1.6 3.2 0.00 0.00 0.00 71 1002.2
20260508060508 8 295 1.6 3.2 0.00 0.00 0.00 71 1002.2
20260508060021 8 223 1.6 4.8 0.00 0.00 0.00 71 1002.2
20260508060009 8 245 1.6 4.8 0.00 0.00 0.00 71 1002.2
20260508055510 8 234 3.2 4.8 0.00 0.00 0.00 70 1002.3
20260508055007 8 240 1.6 3.2 0.00 0.00 0.00 71 1002.3
20260508054521 8 269 1.6 3.2 0.00 0.00 0.00 70 1002.3
20260508054507 8 250 1.6 3.2 0.00 0.00 0.00 70 1002.3
20260508054009 8 223 1.6 3.2 0.00 0.00 0.00 70 1002.2
20260508053508 8 210 1.6 3.2 0.00 0.00 0.00 70 1002.2
20260508053023 8 253 1.6 3.2 0.00 0.00 0.00 70 1002.2
20260508053019 8 223 1.6 3.2 0.00 0.00 0.00 70 1002.2
20260508052509 8 201 1.6 3.2 0.00 0.00 0.00 69 1002.2
20260508052008 8 234 1.6 3.2 0.00 0.00 0.00 69 1002.2
20260508051529 8 269 1.6 3.2 0.00 0.00 0.00 69 1002.1
20260508051008 8 237 1.6 3.2 0.00 0.00 0.00 70 1002.1
20260508050521 8 250 1.6 4.8 0.00 0.00 0.00 71 1002.1
20260508050508 8 218 1.6 4.8 0.00 0.00 0.00 71 1002.1
20260508050021 8 240 1.6 4.8 0.00 0.00 0.00 71 1002.1
20260508050011 8 223 1.6 4.8 0.00 0.00 0.00 70 1002.1
20260508045507 8 229 1.6 3.2 0.00 0.00 0.00 69 1002.1
20260508045009 8 216 1.6 3.2 0.00 0.00 0.00 69 1002.1
20260508044522 8 223 1.6 3.2 0.00 0.00 0.00 69 1002.2
20260508044508 8 240 1.6 3.2 0.00 0.00 0.00 69 1002.2
20260508044019 8 216 1.6 3.2 0.00 0.00 0.00 69 1002.2
20260508043510 8 223 1.6 3.2 0.00 0.00 0.00 68 1002.2
20260508043008 8 216 1.6 3.2 0.00 0.00 0.00 68 1002.2
20260508042508 8 193 1.6 3.2 0.00 0.00 0.00 68 1002.1
20260508042008 8 234 1.6 4.8 0.00 0.00 0.00 69 1002.1
20260508041532 8 231 3.2 4.8 0.00 0.00 0.00 69 1002.1
20260508041508 8 223 3.2 4.8 0.00 0.00 0.00 69 1002.1
20260508041007 8 223 3.2 4.8 0.00 0.00 0.00 70 1002.0
20260508040533 8 223 3.2 4.8 0.00 0.00 0.00 73 1002.0
20260508040508 8 228 3.2 4.8 0.00 0.00 0.00 73 1002.0
20260508040023 8 216 3.2 4.8 0.00 0.00 0.00 72 1002.0
20260508040019 8 213 3.2 4.8 0.00 0.00 0.00 72 1002.0
20260508035507 8 245 1.6 4.8 0.00 0.00 0.00 72 1002.1
20260508035008 8 201 3.2 4.8 0.00 0.00 0.00 72 1002.1
20260508034508 8 223 1.6 3.2 0.00 0.00 0.00 73 1002.1
20260508034022 8 216 1.6 3.2 0.00 0.00 0.00 74 1002.1
20260508034008 8 223 1.6 3.2 0.00 0.00 0.00 74 1002.1
20260508033521 7 223 1.6 4.8 0.00 0.00 0.00 74 1002.2
20260508033507 7 210 1.6 4.8 0.00 0.00 0.00 74 1002.2
20260508033009 7 223 3.2 3.2 0.00 0.00 0.00 75 1002.2
20260508032508 7 223 3.2 3.2 0.00 0.00 0.00 76 1002.1
20260508032040 7 223 1.6 3.2 0.00 0.00 0.00 78 1002.1
20260508031531 7 237 3.2 4.8 0.00 0.00 0.00 78 1002.1
20260508031508 7 229 3.2 4.8 0.00 0.00 0.00 78 1002.1
20260508031021 7 229 3.2 4.8 0.00 0.00 0.00 78 1002.1
20260508031008 7 236 3.2 4.8 0.00 0.00 0.00 78 1002.1
20260508030507 8 223 1.6 3.2 0.00 0.00 0.00 77 1002.2
20260508030027 8 223 1.6 3.2 0.00 0.00 0.00 77 1002.2
20260508030024 8 218 1.6 3.2 0.00 0.00 0.00 77 1002.2
20260508025518 8 229 1.6 3.2 0.00 0.00 0.00 77 1002.2
20260508025009 8 206 1.6 3.2 0.00 0.00 0.00 77 1002.1